Orbital Elements at Epoch 2459000.5 (2020-May-31.0) TDB
Reference: JPL 19 (heliocentric ecliptic J2000)
Element | Value | Uncertainty (1-sigma) | Units |
e | .1073143104579254 | 5.7991e-08 | |
a | 3.02827500801445 | 3.1236e-08 | au |
q | 2.703297763652411 | 1.8016e-07 | au |
i | 13.93781798332239 | 8.4981e-06 | deg |
node | 207.7186463144433 | 2.2622e-05 | deg |
peri | 215.7493373799218 | 4.2551e-05 | deg |
M | 60.80347480229383 | 3.5159e-05 | deg |
tp | 2458675.399757262767 (2019-Jul-10.89975726) | 0.00018715 | TDB |
period | 1924.825641395558 5.27 | 2.9781e-05 8.154e-08 | d yr |
n | .1870299274166926 | 2.8937e-09 | deg/d |
Q | 3.353252252376488 | 3.4588e-08 | au |
|
| | Orbit Determination Parameters
Additional Information
|